Location: G�kdere
(37.0328°N, 30.9000°E)
Time: 21:10:57
(UTC+00:00)

Cosmos 1933 Rocket - Pass Details

Date: 03 March 2021
Orbit: 607 x 630 km, 82.5° (Epoch: 19 April)

Event Time Altitude Azimuth Distance (km) Brightness Sun altitude
Rises 17:16:20 0° 194° (SSW) 2,852 7.1 -17.5°
Reaches altitude 10° 17:18:33 10° 198° (SSW) 1,955 6.3 -17.9°
Maximum altitude 17:22:50 60° 278° (W) 701 4.1 -18.8°
Drops below altitude 10° 17:27:10 10° 359° (N) 1,981 6.2 -19.7°
Sets 17:29:26 0° 3° (N) 2,895 7.1 -20.1°
